This demonstration page uses our WeatherBlox Daily Observations layout. Learn more.

Left ArrowRight Arrow

30.21309, -93.2044

Hourly Observations for June 6, 2019

Temp ( °F °C ) Dew Point ( °F °C ) Humidity (%) Winds ( mph kmh ) Pressure ( in mb ) Visibility ( mi km ) Precip ( " mm )
12:15 am 00:15 Cloudy with Thunderstorms 74 23.3 74 23.1 99 99 ESE 22 35 29.70 1006 5 8 0.00 0.00
12:35 am 00:35 Cloudy with Nearby Thunderstorms 76 24.5 76 24.3 99 99 S 13 20 29.71 1006 7 11 0.00 0.00
12:55 am 00:55 Cloudy with Thunderstorms 78 25.7 78 25.5 99 99 S 16 26 29.71 1006 7 11 0.00 0.00
1:15 am 01:15 Cloudy with Nearby Thunderstorms 79 25.9 78 25.5 98 98 SSW 13 20 29.71 1006 7 11 0.00 0.00
1:35 am 01:35 Cloudy with Nearby Thunderstorms 79 26 78 25.7 98 98 SSW 15 24 29.71 1006 5 8 0.00 0.00
1:55 am 01:55 Cloudy with Thunderstorms 79 26 78 25.6 98 98 SSW 12 19 29.71 1006 7 11 0.00 0.00
2:15 am 02:15 Cloudy with Nearby Thunderstorms 79 26.1 78 25.7 98 98 SSW 17 28 29.71 1006 7 11 0.00 0.00
2:35 am 02:35 Cloudy 78 25.8 77 25.2 97 97 SW 18 30 29.69 1005 7 11 0.00 0.00
2:55 am 02:55 Cloudy with Nearby Thunderstorms 78 25.6 77 25.1 97 97 SW 9 15 29.70 1006 10 16 0.00 0.00
3:15 am 03:15 Cloudy 78 25.5 77 25.1 98 98 WSW 8 13 29.70 1006 10 16 0.00 0.00
3:35 am 03:35 Cloudy with Nearby Thunderstorms 77 25 76 24.5 97 97 WSW 10 17 29.70 1006 10 16 0.00 0.00
3:55 am 03:55 Cloudy 77 24.8 76 24.2 96 96 WSW 8 13 29.71 1006 10 16 0.00 0.00
4:15 am 04:15 Cloudy 76 24.5 75 24 97 97 WSW 12 19 29.71 1006 10 16 0.01 0.25
4:35 am 04:35 Cloudy 76 24.3 75 23.7 96 96 W 12 19 29.70 1006 10 16 0.01 0.25
4:55 am 04:55 Cloudy with Nearby Thunderstorms 75 23.9 73 23 95 95 WSW 13 20 29.71 1006 10 16 0.01 0.25
5:15 am 05:15 Cloudy 75 23.8 74 23.1 96 96 W 15 24 29.72 1006 10 16 0.00 0.00
5:35 am 05:35 Cloudy 75 23.7 73 23 96 96 W 13 20 29.72 1006 10 16 0.00 0.00
6:00 am 06:00 Cloudy 75 24 73 23 94 94 W 13 20 29.72 1006 10 16 0.00 0.00
6:45 am 06:45 Cloudy 75 24 73 23 94 94 W 13 20 29.72 1006 10 16 0.00 0.00
7:50 am 07:50 Cloudy 75 24 72 22 89 89 WNW 12 19 29.74 1007 10 16 0.00 0.00
8:55 am 08:55 Cloudy 77 25 72 22 83 83 NW 13 20 29.75 1007 10 16 0.00 0.00
9:55 am 09:55 Cloudy 79 26 73 23 84 84 NW 12 19 29.74 1007 10 16 0.00 0.00
10:50 am 10:50 Mostly Cloudy 81 27 73 23 79 79 NW 8 13 29.74 1007 10 16 0.00 0.00
11:55 am 11:55 Mostly Cloudy 84 29 73 23 70 70 WNW 6 9 29.76 1008 10 16 0.00 0.00
12:55 pm 12:55 Mostly Cloudy 86 30 73 23 66 66 W 6 9 29.78 1008 10 16 0.00 0.00
1:55 pm 13:55 Mostly Cloudy 86 30 75 24 70 70 SSW 8 13 29.78 1008 10 16 0.00 0.00
2:53 pm 14:53 Mostly Cloudy 88 31 75 24 66 66 SW 8 13 29.77 1008 10 16 0.00 0.00
3:45 pm 15:45 Mostly Cloudy 90 32 75 24 63 63 undefined N/A 29.75 1007 10 16 0.00 0.00
4:53 pm 16:53 Partly Cloudy 88 31 77 25 70 70 undefined N/A 29.73 1007 10 16 0.00 0.00
5:53 pm 17:53 Partly Cloudy 86 30 77 25 75 75 undefined N/A 29.72 1006 10 16 0.00 0.00
7:45 pm 19:45 Sunny 82 28 75 24 79 79 undefined N/A 29.71 1006 10 16 0.00 0.00
8:53 pm 20:53 Clear 82 28 77 25 84 84 undefined N/A 29.73 1007 10 16 0.00 0.00
9:45 pm 21:45 Mostly Clear 82 28 79 26 89 89 SW 7 11 29.76 1008 10 16 0.00 0.00
10:15 pm 22:15 Mostly Cloudy 82 27.8 79 26.1 90 90 SSW 10 17 29.76 1008 10 16 0.00 0.00
10:35 pm 22:35 Mostly Cloudy 82 28 79 26.3 91 91 SSW 9 15 29.75 1007 10 16 0.00 0.00
10:55 pm 22:55 Cloudy 83 28.1 79 26.2 89 89 SW 10 17 29.74 1007 10 16 0.01 0.25
11:15 pm 23:15 Mostly Cloudy 82 28 79 26.1 89 89 SW 9 15 29.72 1006 10 16 0.00 0.00
11:35 pm 23:35 Partly Cloudy 82 28 79 25.9 88 88 WSW 5 7 29.72 1006 10 16 0.00 0.00
11:55 pm 23:55 Clear 82 27.8 78 25.7 88 88 SW 5 7 29.72 1006 10 16 0.00 0.00

Powered by AerisWeather